Powrót do katalogu

STARLINK-36813

AktywnyŁącznośćSSO
NORAD 67892·PAYLOAD·🇺🇸 United States

Wystrzelony Feb 21, 2026 z Vandenberg Space Force Base

Loading…

Następne Przeloty (najbliższe 24 godziny)

TLE

ŚwieżeSource: CelesTrak SupGP

Epoka: Sep 15, 2026, 03:32 UTC

1 67892C 26035P   26258.14770833  .00092332  00000+0  28664-2 0  2588
2 67892  97.2848 190.1432 0001708  99.8737  28.6241 15.33389484    13

Śledź STARLINK-36813 w czasie rzeczywistym z AllMySat

Download on the App Store